Location: ?ernice
(48.8383°N, 14.3803°E)
Time: 21:24:12
(UTC+00:00)

Meteor 1-24 Rocket - Pass Details

Date: 23 May 2024
Orbit: 788 x 927 km, 81.3° (Epoch: 21 June)

Event Time Altitude Azimuth Distance (km) Brightness Sun altitude
Exits shadow 02:02:47 - 199° (SSW) 2,734 5.8 -9.4°
Reaches altitude 10° 02:03:05 10° 199° (SSW) 2,624 5.7 -9.4°
Maximum altitude 02:09:06 71° 284° (WNW) 980 4.0 -8.7°
Drops below altitude 10° 02:15:06 10° 8° (N) 2,617 7.1 -8.0°
Sets 02:17:35 0° 11° (N) 3,549 8.0 -7.7°
